TimeCDT,TemperatureF,Dew PointF,Humidity,Sea Level PressureIn,VisibilityMPH,Wind Direction,Wind SpeedMPH,Gust SpeedMPH,PrecipitationIn,Events,Conditions,WindDirDegrees,DateUTC
12:15 AM,75.2,53.6,47,29.92,10.0,SSE,18.4,-,N/A,,Clear,160,2013-07-05 05:15:00
12:35 AM,75.2,53.6,47,29.91,10.0,SSE,18.4,23.0,N/A,,Clear,160,2013-07-05 05:35:00
12:55 AM,75.2,53.6,47,29.91,10.0,South,19.6,26.5,N/A,,Clear,170,2013-07-05 05:55:00
1:15 AM,73.4,53.6,50,29.91,10.0,SSE,15.0,20.7,N/A,,Clear,160,2013-07-05 06:15:00
1:35 AM,73.4,53.6,50,29.92,10.0,South,16.1,-,N/A,,Clear,170,2013-07-05 06:35:00
1:55 AM,73.4,55.4,53,29.91,10.0,South,19.6,23.0,N/A,,Clear,170,2013-07-05 06:55:00
2:15 AM,73.4,55.4,53,29.92,10.0,South,16.1,25.3,N/A,,Scattered Clouds,170,2013-07-05 07:15:00
2:35 AM,73.4,55.4,53,29.91,10.0,South,17.3,24.2,N/A,,Scattered Clouds,180,2013-07-05 07:35:00
2:55 AM,73.4,55.4,53,29.91,10.0,South,16.1,23.0,N/A,,Partly Cloudy,180,2013-07-05 07:55:00
3:15 AM,73.4,55.4,53,29.92,10.0,South,13.8,-,N/A,,Partly Cloudy,180,2013-07-05 08:15:00
3:35 AM,71.6,55.4,57,29.91,10.0,South,16.1,-,N/A,,Clear,180,2013-07-05 08:35:00
3:55 AM,71.6,55.4,57,29.90,10.0,South,15.0,-,N/A,,Clear,180,2013-07-05 08:55:00
4:15 AM,71.6,55.4,57,29.90,10.0,South,15.0,-,N/A,,Clear,180,2013-07-05 09:15:00
4:35 AM,71.6,55.4,57,29.90,10.0,South,15.0,-,N/A,,Clear,180,2013-07-05 09:35:00
4:55 AM,71.6,55.4,57,29.90,10.0,South,16.1,-,N/A,,Clear,180,2013-07-05 09:55:00
5:15 AM,71.6,55.4,57,29.90,10.0,South,13.8,19.6,N/A,,Clear,180,2013-07-05 10:15:00
5:35 AM,69.8,55.4,60,29.90,10.0,South,15.0,-,N/A,,Clear,180,2013-07-05 10:35:00
5:55 AM,69.8,55.4,60,29.89,10.0,South,15.0,20.7,N/A,,Clear,180,2013-07-05 10:55:00
6:15 AM,69.8,55.4,60,29.90,10.0,South,16.1,19.6,N/A,,Clear,180,2013-07-05 11:15:00
6:35 AM,69.8,55.4,60,29.90,10.0,South,16.1,19.6,N/A,,Clear,170,2013-07-05 11:35:00
6:55 AM,69.8,57.2,64,29.90,10.0,South,15.0,-,N/A,,Clear,170,2013-07-05 11:55:00
7:15 AM,69.8,57.2,64,29.90,10.0,South,18.4,25.3,N/A,,Clear,180,2013-07-05 12:15:00
7:35 AM,71.6,57.2,60,29.90,10.0,South,21.9,26.5,N/A,,Clear,180,2013-07-05 12:35:00
7:55 AM,71.6,57.2,60,29.90,10.0,South,23.0,26.5,N/A,,Clear,180,2013-07-05 12:55:00
8:15 AM,73.4,57.2,57,29.90,10.0,South,24.2,27.6,N/A,,Clear,180,2013-07-05 13:15:00
8:35 AM,75.2,57.2,53,29.91,10.0,South,24.2,29.9,N/A,,Clear,180,2013-07-05 13:35:00
8:55 AM,75.2,57.2,53,29.91,10.0,South,20.7,28.8,N/A,,Clear,180,2013-07-05 13:55:00
9:15 AM,75.2,57.2,53,29.91,10.0,South,20.7,31.1,N/A,,Clear,180,2013-07-05 14:15:00
9:35 AM,77.0,57.2,50,29.90,10.0,South,25.3,33.4,N/A,,Clear,180,2013-07-05 14:35:00
9:55 AM,78.8,57.2,47,29.90,10.0,South,19.6,31.1,N/A,,Clear,180,2013-07-05 14:55:00
10:15 AM,80.6,57.2,45,29.89,10.0,South,21.9,-,N/A,,Clear,180,2013-07-05 15:15:00
10:35 AM,80.6,57.2,45,29.89,10.0,South,25.3,31.1,N/A,,Clear,170,2013-07-05 15:35:00
10:55 AM,82.4,57.2,42,29.89,10.0,South,19.6,29.9,N/A,,Clear,180,2013-07-05 15:55:00
11:15 AM,84.2,57.2,40,29.89,10.0,South,21.9,28.8,N/A,,Clear,190,2013-07-05 16:15:00
11:35 AM,84.2,57.2,40,29.89,10.0,South,21.9,29.9,N/A,,Clear,180,2013-07-05 16:35:00
11:55 AM,86.0,57.2,37,29.88,10.0,South,21.9,27.6,N/A,,Clear,180,2013-07-05 16:55:00
12:15 PM,87.8,57.2,35,29.87,10.0,South,20.7,28.8,N/A,,Clear,180,2013-07-05 17:15:00
12:35 PM,87.8,57.2,35,29.87,10.0,South,19.6,28.8,N/A,,Clear,190,2013-07-05 17:35:00
12:55 PM,89.6,57.2,33,29.87,10.0,South,17.3,27.6,N/A,,Clear,170,2013-07-05 17:55:00
1:15 PM,89.6,57.2,33,29.87,10.0,South,19.6,28.8,N/A,,Clear,190,2013-07-05 18:15:00
1:35 PM,91.4,57.2,31,29.86,10.0,SSE,19.6,29.9,N/A,,Clear,160,2013-07-05 18:35:00
1:55 PM,91.4,57.2,31,29.85,10.0,South,21.9,28.8,N/A,,Clear,180,2013-07-05 18:55:00
2:15 PM,93.2,57.2,30,29.85,10.0,South,18.4,26.5,N/A,,Clear,170,2013-07-05 19:15:00
2:35 PM,91.4,57.2,31,29.84,10.0,SSE,19.6,26.5,N/A,,Clear,160,2013-07-05 19:35:00
2:55 PM,93.2,57.2,30,29.84,10.0,South,19.6,-,N/A,,Clear,170,2013-07-05 19:55:00
3:15 PM,95.0,57.2,28,29.83,10.0,SSE,19.6,31.1,N/A,,Clear,160,2013-07-05 20:15:00
3:35 PM,95.0,57.2,28,29.82,10.0,SSE,24.2,29.9,N/A,,Clear,160,2013-07-05 20:35:00
3:55 PM,95.0,57.2,28,29.82,10.0,South,24.2,31.1,N/A,,Clear,170,2013-07-05 20:55:00
4:15 PM,95.0,57.2,28,29.81,10.0,SSE,27.6,-,N/A,,Clear,150,2013-07-05 21:15:00
4:35 PM,96.8,57.2,27,29.81,10.0,SSE,23.0,31.1,N/A,,Clear,160,2013-07-05 21:35:00
4:55 PM,95.0,57.2,28,29.80,10.0,South,20.7,-,N/A,,Clear,170,2013-07-05 21:55:00
5:15 PM,95.0,55.4,26,29.80,10.0,South,17.3,31.1,N/A,,Clear,170,2013-07-05 22:15:00
5:35 PM,93.2,55.4,28,29.80,10.0,South,21.9,26.5,N/A,,Clear,180,2013-07-05 22:35:00
5:55 PM,93.2,55.4,28,29.79,10.0,SSE,21.9,27.6,N/A,,Clear,160,2013-07-05 22:55:00
6:15 PM,93.2,55.4,28,29.78,10.0,SSE,21.9,26.5,N/A,,Clear,160,2013-07-05 23:15:00
6:35 PM,93.2,57.2,30,29.78,10.0,SSE,23.0,26.5,N/A,,Clear,150,2013-07-05 23:35:00
6:55 PM,93.2,57.2,30,29.78,10.0,SSE,19.6,27.6,N/A,,Clear,150,2013-07-05 23:55:00
7:15 PM,91.4,57.2,31,29.79,10.0,SSE,18.4,-,N/A,,Clear,150,2013-07-06 00:15:00
7:35 PM,91.4,55.4,29,29.78,10.0,SSE,18.4,26.5,N/A,,Clear,150,2013-07-06 00:35:00
7:55 PM,89.6,55.4,31,29.79,10.0,SSE,19.6,-,N/A,,Clear,150,2013-07-06 00:55:00
8:15 PM,89.6,55.4,31,29.80,10.0,SSE,17.3,-,N/A,,Clear,150,2013-07-06 01:15:00
8:35 PM,87.8,55.4,33,29.80,10.0,SSE,16.1,23.0,N/A,,Clear,150,2013-07-06 01:35:00
8:55 PM,87.8,55.4,33,29.81,10.0,SSE,18.4,23.0,N/A,,Clear,160,2013-07-06 01:55:00
9:15 PM,86.0,55.4,35,29.81,10.0,SSE,19.6,24.2,N/A,,Clear,160,2013-07-06 02:15:00
9:35 PM,84.2,55.4,37,29.82,10.0,SSE,16.1,23.0,N/A,,Clear,150,2013-07-06 02:35:00
9:55 PM,84.2,57.2,40,29.82,10.0,SSE,18.4,-,N/A,,Clear,150,2013-07-06 02:55:00
10:15 PM,82.4,57.2,42,29.83,10.0,SSE,20.7,24.2,N/A,,Clear,150,2013-07-06 03:15:00
10:35 PM,82.4,57.2,42,29.84,10.0,SSE,23.0,29.9,N/A,,Clear,150,2013-07-06 03:35:00
10:55 PM,80.6,57.2,45,29.84,10.0,SSE,25.3,32.2,N/A,,Clear,160,2013-07-06 03:55:00
11:15 PM,80.6,57.2,45,29.84,10.0,SSE,20.7,29.9,N/A,,Clear,160,2013-07-06 04:15:00
11:35 PM,78.8,57.2,47,29.84,10.0,SSE,24.2,33.4,N/A,,Clear,150,2013-07-06 04:35:00
11:55 PM,78.8,57.2,47,29.84,10.0,SSE,21.9,25.3,N/A,,Clear,160,2013-07-06 04:55:00